Location: McFarlands Corners
(41.4117°N, 81.3382°W)
Time: 01:57:03
(UTC+00:00)

Transit 4A - Pass Details

Date: 19 November 2024
Orbit: 862 x 980 km, 66.8° (Epoch: 08 December)

Event Time Altitude Azimuth Distance (km) Brightness Sun altitude
Rises 00:18:41 0° 338° (NNW) 3,660 11.2 -25.3°
Reaches altitude 10° 00:22:24 10° 359° (N) 2,725 10.3 -26.0°
Enters shadow 00:23:54 14° 12° (NNE) 2,471 10.0 -26.3°
